Theta_e
313 313 313 312 312 312 312 311 311 311 311 310 310 309 310 310 310 310 309 309 311 311 312 312 312 313 313 312 312 312 312 311 309 308 307 306 305 304 303 302 301 300 299 298 298 298 298 298 298 297 296 295 296 296 296 296 294 292 292 292 291 291 291 291 289 287 286 287 287 288 287 286 286 285 284 284 284 284 283 283 283 283 283 283 283
313 313 312 312 312 312 312 311 311 310 310 310 310 309 309 309 309 309 309 310 311 311 312 312 313 313 312 312 311 310 310 310 310 308 307 306 305 304 303 302 301 300 299 298 298 298 298 298 297 297 296 295 295 296 295 294 292 292 292 291 291 291 291 290 289 287 287 286 286 287 287 286 286 285 284 284 284 284 283 283 283 283 283 283 283
313 313 312 312 312 311 311 311 310 310 310 309 309 309 309 309 308 308 309 309 310 311 311 312 312 312 311 311 310 309 309 308 309 308 307 307 306 304 303 302 301 300 299 299 299 298 298 297 296 296 295 295 294 295 294 293 291 291 291 291 291 291 290 289 289 288 287 286 286 286 287 286 286 285 285 284 284 283 283 283 283 283 283 283 284
312 312 312 311 311 311 311 310 310 309 309 309 309 308 308 308 308 308 308 309 309 310 311 311 311 310 310 309 308 308 308 307 307 307 307 307 306 305 304 302 301 301 301 300 300 299 298 297 296 296 295 294 293 293 292 291 291 291 291 291 291 290 289 289 289 288 288 287 286 286 286 286 286 285 285 284 283 283 283 283 283 283 283 283 284
312 311 311 311 311 311 310 310 309 308 309 308 308 308 308 307 307 307 308 308 308 309 310 310 310 308 308 309 308 308 307 307 307 306 307 306 306 305 304 303 302 301 301 301 300 300 299 297 296 295 294 292 291 291 291 291 291 291 291 291 290 289 289 288 288 288 288 287 287 286 285 285 285 285 284 284 283 283 283 283 283 283 283 284 284
311 311 311 311 311 310 310 310 309 309 309 308 308 308 307 307 307 307 307 307 308 308 309 310 310 309 309 308 308 308 307 306 306 306 306 306 305 304 303 303 302 301 301 301 301 300 299 298 296 295 294 292 290 290 290 290 290 290 290 290 289 289 288 287 287 287 287 287 287 286 285 285 284 284 284 283 283 283 283 283 283 283 283 283 284
310 310 310 310 310 311 310 310 310 309 308 308 308 307 307 307 307 306 306 306 307 307 308 308 309 309 309 308 308 307 306 305 304 305 305 304 304 303 302 302 301 301 301 300 300 300 299 297 295 294 294 292 291 291 290 290 289 289 289 289 288 288 288 287 287 286 285 286 286 286 285 285 284 284 283 283 282 282 282 282 283 283 283 283 283
309 310 310 309 310 310 310 310 310 309 308 307 307 307 307 307 306 306 306 306 306 306 306 306 307 307 309 309 308 306 305 304 303 303 303 303 302 302 301 301 301 300 300 300 299 299 298 296 294 294 294 292 291 291 290 290 289 288 288 288 288 288 288 287 286 285 285 285 285 285 285 284 283 283 283 282 282 282 282 282 283 284 283 283 283
309 309 309 309 310 310 310 310 309 308 307 307 306 306 306 306 306 305 305 305 305 305 306 305 305 306 306 307 306 304 303 303 303 303 303 302 301 301 300 300 300 300 299 298 298 297 296 295 294 294 294 293 292 292 291 291 289 288 288 287 288 290 288 286 285 285 284 284 284 284 283 283 282 282 281 282 282 283 283 282 282 283 283 282 283
309 308 308 309 310 310 310 309 308 307 307 306 306 306 305 305 305 305 305 305 305 305 305 304 304 304 304 304 304 302 301 302 303 303 303 302 302 301 300 299 299 298 298 296 295 295 295 295 295 295 295 294 293 292 291 291 290 289 289 288 289 291 288 285 285 285 285 284 283 283 282 282 282 282 282 283 284 284 283 282 282 282 282 281 282
308 308 308 309 309 309 309 308 307 307 306 306 305 305 305 304 304 304 304 304 304 304 303 303 303 303 302 302 302 301 300 301 301 302 302 302 302 301 300 299 298 297 297 296 295 294 294 293 293 294 294 294 292 290 289 289 289 289 289 290 292 293 290 287 287 287 286 285 284 283 282 283 284 283 283 284 284 283 282 282 282 282 281 281 281
307 307 308 308 308 308 308 307 306 306 306 306 305 305 304 303 303 303 303 303 303 302 302 303 303 302 301 301 301 300 300 300 300 301 302 302 301 300 299 299 298 297 296 296 295 294 293 292 291 291 291 292 291 289 288 288 288 288 288 290 293 294 294 293 291 290 289 287 285 284 285 285 286 285 285 285 285 284 283 282 282 282 281 281 280
307 307 308 308 307 307 307 306 305 306 306 305 305 304 303 303 303 302 302 302 301 301 301 302 302 301 301 300 300 299 299 299 299 300 301 301 300 299 298 298 298 297 296 295 295 294 293 291 290 289 289 290 289 288 287 287 287 287 289 291 292 293 293 294 294 293 293 291 289 288 289 289 289 288 288 287 286 284 283 282 282 282 282 281 281
307 308 308 307 307 306 305 305 305 305 305 305 303 303 302 302 302 302 301 301 300 300 300 300 300 300 300 299 299 298 298 298 299 299 299 299 299 298 297 297 297 296 296 295 294 293 292 291 290 289 289 288 287 287 286 286 286 287 289 290 291 291 292 292 293 293 293 292 291 291 291 291 290 289 288 287 285 284 284 283 283 282 281 281 281
308 308 307 307 307 306 305 305 305 305 304 304 302 302 302 302 301 301 300 300 299 299 299 299 299 299 299 299 298 297 298 298 298 298 298 298 298 297 296 296 295 295 294 294 293 292 291 290 289 289 288 287 286 286 286 285 286 287 288 289 290 291 291 292 293 293 293 292 291 291 291 290 289 287 286 285 284 284 283 283 282 281 280 280 280
307 307 307 307 307 306 305 305 304 304 304 302 302 302 301 301 301 300 299 299 298 298 298 298 298 298 298 298 297 297 297 297 297 298 298 297 297 296 295 294 294 293 293 292 292 291 290 289 288 288 287 286 285 285 285 285 286 287 289 289 289 290 291 293 293 293 293 293 292 291 290 288 286 285 284 283 283 282 282 281 281 280 280 279 279
306 306 306 307 307 306 305 304 304 304 303 302 302 301 301 301 300 300 299 298 297 297 297 297 297 297 297 297 297 296 296 297 297 297 297 297 296 295 294 293 292 292 292 291 290 290 289 288 287 286 285 285 284 284 285 285 286 288 289 288 287 289 291 292 292 293 293 293 291 290 288 286 284 283 283 282 282 281 281 281 281 280 279 278 278
306 305 305 305 305 305 304 304 303 303 303 302 302 302 301 300 300 299 299 298 297 297 297 296 296 296 296 296 296 296 296 296 296 296 296 296 295 294 293 292 291 291 290 290 289 288 287 287 286 286 285 284 284 284 285 285 287 288 288 287 287 289 291 292 292 293 293 292 291 289 287 285 283 282 282 282 281 281 281 281 281 280 279 278 278
304 304 304 303 303 303 303 303 303 303 302 303 302 302 301 300 300 299 298 298 297 297 296 296 295 295 295 296 296 295 295 295 295 295 295 294 294 293 292 292 291 290 289 288 287 287 286 285 285 285 285 284 284 284 284 286 288 290 289 289 290 291 292 292 292 293 292 291 290 289 287 285 284 283 282 282 281 281 281 282 282 281 280 279 279
303 302 302 302 302 302 301 301 301 302 302 302 302 301 301 300 299 298 297 297 296 296 295 295 294 294 294 295 295 295 294 294 294 294 294 293 293 292 291 291 290 290 289 287 286 285 284 284 284 285 285 284 284 284 284 286 290 291 292 292 292 292 292 292 292 292 292 292 291 289 287 285 284 283 282 281 281 281 281 282 282 281 281 280 280
301 301 301 301 301 301 301 300 300 300 301 301 301 301 300 299 298 297 297 296 295 295 295 294 294 294 294 294 294 294 293 293 293 293 293 292 292 291 291 290 290 289 287 286 284 283 283 283 284 284 284 284 284 284 284 286 290 292 292 292 292 292 292 292 292 292 291 290 289 287 285 284 283 282 281 281 281 281 281 281 281 281 281 281 280
300 300 299 299 300 300 299 299 299 299 299 299 299 300 299 298 297 297 296 295 294 294 294 293 293 293 293 293 293 292 292 292 292 292 292 291 290 290 290 290 289 288 286 284 283 283 283 283 284 284 284 284 284 284 284 287 290 292 292 292 292 291 291 291 291 290 289 287 286 284 283 282 282 281 281 281 281 281 281 281 281 281 281 281 280
299 298 298 298 298 298 298 298 298 298 298 298 298 298 298 297 296 296 295 294 293 293 292 292 292 291 291 291 291 291 291 291 291 290 290 290 290 289 290 289 288 287 286 284 284 283 283 284 284 284 284 284 284 284 284 286 289 290 291 292 291 290 291 291 290 288 286 284 283 282 282 281 281 281 281 281 281 280 280 280 280 280 280 279 279
297 297 297 297 297 297 297 297 297 297 297 297 297 297 297 296 295 294 294 293 292 291 291 291 290 290 290 290 290 290 290 290 290 290 289 289 289 289 289 289 288 286 286 285 284 284 283 284 284 285 284 284 284 284 283 285 287 289 291 291 290 290 290 289 288 286 284 282 282 282 281 281 281 281 281 281 280 280 279 279 279 279 279 279 279
296 296 296 296 296 296 296 296 296 296 296 296 296 296 295 295 293 293 292 291 291 290 290 290 289 289 289 289 289 289 288 288 289 288 288 288 288 288 289 288 287 286 285 285 284 284 284 284 285 284 284 283 283 284 284 284 285 288 290 290 289 289 289 288 286 284 282 281 281 281 281 281 281 281 281 281 280 279 279 279 279 279 279 279 279
294 295 295 295 295 295 295 295 295 295 295 295 295 295 294 294 293 292 291 290 290 290 289 289 289 289 289 289 288 288 288 287 287 287 286 287 287 288 288 288 287 286 285 284 284 284 284 285 285 285 284 283 284 284 284 284 285 287 289 288 288 289 288 286 284 282 281 281 281 281 281 281 281 281 281 280 279 279 279 279 279 279 279 279 279
293 293 293 294 294 294 294 294 294 294 294 294 294 293 293 293 292 291 290 289 289 289 289 289 289 289 289 289 288 287 286 286 285 285 285 286 286 287 287 287 286 285 285 284 284 284 284 285 284 284 284 284 284 284 284 284 285 286 287 287 288 288 287 285 283 282 282 282 281 281 281 281 281 281 280 279 279 279 279 279 279 279 279 279 279
292 292 293 293 293 293 293 293 293 293 293 293 293 292 292 292 291 291 291 290 290 289 289 289 289 289 289 288 287 286 285 285 284 285 285 285 286 287 287 286 286 285 284 284 284 284 284 283 283 283 283 284 284 284 284 285 285 286 287 287 288 287 285 284 283 283 283 282 282 282 281 281 281 280 280 280 280 279 279 279 279 279 279 279 278
292 292 292 292 292 292 292 292 292 292 291 291 291 291 291 291 291 291 291 291 290 290 290 289 289 289 289 288 287 285 284 284 285 285 285 286 286 286 286 286 285 285 284 284 284 283 283 283 283 283 283 283 283 284 284 285 285 286 287 287 286 285 284 284 284 283 283 282 282 282 281 281 281 280 280 280 280 280 280 280 279 279 278 278 276
291 291 291 291 291 292 291 291 291 291 290 290 290 290 290 290 289 290 290 290 290 290 289 289 289 289 289 288 288 287 286 285 285 285 285 285 286 286 286 285 285 285 284 284 284 283 283 283 283 283 283 283 284 284 285 285 285 286 286 286 285 284 284 284 283 283 283 282 282 282 281 281 280 280 280 280 280 280 279 279 279 278 277 276 276
289 289 289 290 290 291 291 290 290 290 289 289 289 289 289 288 289 289 289 289 289 289 289 289 289 289 289 288 288 287 286 286 285 285 284 285 286 286 286 285 285 285 284 284 284 284 284 284 284 284 284 284 285 285 285 285 285 285 284 284 284 284 283 283 283 283 282 282 282 281 281 281 280 280 280 280 280 279 279 279 278 277 277 276 275
288 288 289 289 290 290 290 289 289 289 288 288 288 288 288 288 288 288 288 288 288 288 288 288 288 288 288 288 288 287 286 285 285 284 284 285 285 286 286 285 285 285 285 284 284 284 284 284 284 284 284 285 285 285 284 284 284 284 283 283 283 283 283 283 282 282 282 282 281 281 281 280 280 280 280 280 279 279 278 278 277 276 276 275 275
287 288 288 289 289 289 289 289 288 288 288 288 287 287 287 287 287 287 287 287 287 287 288 288 287 287 287 287 287 286 286 285 285 284 284 284 285 285 286 285 285 285 285 285 284 284 284 284 284 284 284 284 284 284 284 284 283 283 283 282 282 282 282 282 282 281 281 281 280 280 280 280 280 279 279 279 278 278 277 277 276 275 275 274 273
287 287 288 288 288 288 289 288 288 288 287 287 287 287 287 287 287 286 286 286 286 286 286 287 286 287 286 286 286 286 285 285 285 284 284 284 285 285 285 285 285 285 285 285 284 284 284 284 284 284 284 284 284 283 283 283 283 282 282 282 282 282 281 281 281 281 280 280 280 280 279 279 279 279 278 278 277 277 276 276 275 274 273 273 273
286 286 287 288 288 288 288 288 288 287 287 287 287 286 286 286 286 286 286 286 285 285 285 286 286 286 286 285 285 285 285 285 285 284 284 284 284 285 285 285 285 285 285 285 284 284 284 283 283 283 283 283 283 283 282 282 282 282 282 281 281 281 281 280 280 280 280 279 279 279 279 279 278 278 278 277 276 275 275 274 274 273 273 273 272
285 286 286 287 287 288 288 288 287 287 287 287 286 286 286 286 286 286 286 285 285 285 285 285 285 285 285 285 285 285 285 285 284 284 284 284 284 284 284 284 285 285 285 285 284 283 283 283 283 283 283 282 282 282 282 282 282 282 282 281 281 281 280 280 280 279 279 278 278 278 278 278 278 277 277 276 275 275 274 273 273 273 272 272 272
284 285 286 287 287 287 287 287 287 287 287 286 286 286 285 285 285 285 284 284 284 284 284 284 284 284 284 284 284 284 284 284 284 284 284 284 284 284 284 284 284 284 285 284 283 283 283 282 282 282 282 282 282 282 282 282 281 282 282 281 281 281 280 280 279 279 278 278 278 278 278 277 277 277 276 275 275 274 273 273 272 272 272 271 271
283 284 285 286 287 287 287 286 287 286 286 286 285 285 285 284 284 284 284 283 283 283 283 283 283 283 283 284 284 284 284 284 283 283 284 284 284 284 284 283 283 284 284 283 283 282 282 281 281 281 281 281 281 281 281 281 281 281 281 280 280 280 280 279 279 278 278 277 277 277 277 276 276 276 276 275 275 274 273 273 272 271 271 271 270
282 283 285 286 286 286 286 286 286 286 285 285 285 284 284 284 283 283 283 283 282 282 282 282 282 282 283 283 283 283 283 283 283 283 283 284 284 283 283 282 282 283 283 282 282 281 281 280 280 280 280 280 280 280 280 280 280 280 279 279 279 279 279 278 278 277 277 277 277 276 276 276 275 275 275 274 274 274 273 272 272 271 270 270 270
281 282 284 285 285 285 285 285 285 285 285 285 284 284 283 283 283 282 282 282 281 281 281 281 281 282 282 283 283 283 283 283 283 283 283 283 283 282 282 281 282 282 281 281 281 280 280 280 280 280 280 279 279 279 279 279 279 279 279 279 279 278 278 278 277 277 277 277 277 276 276 276 275 275 274 274 274 273 273 272 271 271 270 270 270
279 281 282 284 284 285 285 285 284 284 284 284 284 284 283 283 282 282 282 281 281 281 281 281 281 281 282 282 282 282 282 282 282 282 282 282 282 281 281 281 281 281 281 280 280 280 279 279 279 279 279 279 279 279 279 279 279 279 278 278 278 278 278 278 277 277 277 277 277 276 276 276 276 275 274 274 274 273 272 272 271 271 271 271 270
278 280 282 283 283 284 284 284 284 284 284 284 284 283 283 283 282 282 282 281 281 280 280 280 280 280 281 281 282 282 282 282 282 282 282 282 281 281 281 281 280 280 280 280 280 279 279 279 279 279 279 279 279 279 279 279 279 278 278 278 278 278 278 278 278 277 277 277 277 277 276 276 276 275 274 274 274 273 273 272 272 272 271 271 270
277 279 281 282 282 283 283 283 283 283 283 283 283 283 282 282 282 282 281 281 280 280 279 279 279 280 280 281 281 281 281 281 281 281 281 281 281 281 280 280 280 280 280 280 280 279 279 279 279 279 279 279 279 279 279 279 279 278 278 278 278 278 278 278 277 277 277 277 277 277 276 276 275 275 274 274 273 273 273 272 272 271 271 270 270
277 278 280 281 281 281 281 281 281 282 282 282 282 282 282 282 282 281 281 280 280 279 279 279 279 280 280 280 280 280 280 280 280 280 280 280 280 280 280 280 280 279 279 279 279 279 279 279 279 279 279 279 279 279 279 279 279 279 279 278 278 278 278 278 277 277 277 276 276 276 276 276 275 275 274 274 273 273 272 272 271 271 270 269 269
277 278 279 279 280 280 280 280 280 280 280 280 280 280 280 280 280 280 280 279 279 279 278 278 278 279 279 279 279 279 279 279 279 279 280 279 279 279 279 279 279 279 279 279 279 279 279 279 279 279 279 279 278 278 278 278 278 278 278 278 278 277 277 277 277 276 276 276 276 275 275 275 274 274 274 273 273 272 271 271 270 270 269 268 268
276 277 278 278 278 278 278 278 279 279 279 279 279 279 278 278 278 278 278 278 278 277 277 277 277 277 277 277 277 278 278 278 278 278 278 278 278 278 278 278 278 278 278 278 278 278 278 278 278 278 278 278 277 277 277 277 277 276 276 276 276 276 276 275 275 275 274 274 274 274 273 273 273 273 272 272 271 271 270 270 270 269 268 267 267
275 276 276 276 276 276 276 276 277 277 277 277 277 277 277 277 277 277 276 276 276 276 275 275 275 275 275 275 276 276 276 276 276 276 276 276 276 276 276 276 276 276 276 276 276 276 276 276 276 276 276 276 275 275 275 275 275 275 274 274 274 273 273 273 272 272 272 272 272 272 272 271 271 271 271 270 270 269 269 269 268 268 267 266 265
274 274 275 275 275 275 274 275 275 276 275 275 275 275 275 275 274 274 274 274 274 274 273 273 273 274 274 274 274 274 274 274 274 274 274 274 274 274 274 274 274 274 274 274 274 274 274 274 274 274 273 273 273 273 273 273 273 272 272 272 271 271 271 271 270 270 270 270 270 270 270 270 270 269 269 269 268 268 267 267 267 266 266 265 264
271 271 272 272 273 273 273 273 274 274 273 273 273 273 272 272 272 272 272 271 271 271 271 271 272 272 272 272 272 272 272 272 272 272 272 271 271 271 271 271 271 271 271 271 271 271 271 271 271 271 271 271 271 271 271 271 271 271 270 270 270 270 270 269 269 269 269 269 269 269 268 268 268 267 267 267 267 266 266 266 266 265 265 264 264
269 269 269 269 269 269 270 271 271 271 271 271 271 270 270 270 270 269 270 270 270 269 270 270 270 271 271 271 271 271 271 270 270 270 270 270 270 270 269 269 269 269 269 269 269 269 269 269 270 270 270 270 270 270 269 269 269 269 269 269 268 268 268 268 268 268 268 267 267 267 267 266 266 266 266 266 265 265 265 265 264 264 264 263 263
268 268 268 267 267 267 268 268 268 268 268 269 269 268 268 268 268 268 269 269 269 269 269 269 269 269 269 269 269 269 269 269 269 269 268 268 268 268 268 268 268 268 268 268 268 268 269 269 269 269 269 269 269 268 268 268 268 267 267 267 267 267 267 267 267 266 266 266 266 266 265 265 265 265 265 265 264 264 264 264 263 263 262 262 262
Wind_Speed
27 31 32 33 34 35 36 35 35 35 35 36 37 37 36 35 34 34 34 36 36 35 35 37 38 39 40 41 42 43 44 44 44 43 43 44 44 45 45 45 46 46 44 43 44 44 44 44 44 44 44 43 42 40 38 37 35 35 34 33 33 27 20 19 14 8 14 19 17 19 22 20 22 25 25 23 20 19 18 16 16 16 15 14 14
25 29 31 33 34 35 35 35 35 35 35 36 37 37 36 35 34 34 35 37 36 36 38 38 39 39 40 42 43 43 43 44 45 44 44 44 44 44 43 44 45 45 42 42 43 44 44 43 43 43 44 43 42 40 39 39 37 37 36 34 33 30 25 22 19 13 14 19 18 18 22 23 23 25 25 23 20 18 17 16 17 17 15 15 16
25 27 29 32 34 34 35 36 35 35 36 37 38 38 37 36 34 34 36 37 37 38 38 38 38 40 41 42 43 43 43 43 44 44 45 45 45 45 44 45 45 45 44 43 43 43 43 42 42 43 43 43 42 40 39 40 40 37 37 35 33 31 28 25 22 18 17 19 20 21 24 26 26 25 25 22 18 17 17 17 17 17 16 17 18
24 26 28 31 33 34 35 36 36 36 37 38 38 38 37 36 36 36 36 38 39 39 39 38 39 41 42 42 43 44 44 43 43 43 44 45 46 46 46 46 46 46 46 46 45 44 43 43 43 43 44 43 42 42 41 40 40 38 37 36 34 32 30 27 23 20 19 20 21 23 24 25 26 25 23 21 19 18 18 17 17 18 17 17 18
24 25 27 30 31 34 36 36 36 37 38 39 39 38 37 37 36 36 37 38 39 40 40 39 41 42 42 42 42 43 44 44 43 44 45 45 46 47 47 47 47 46 47 47 46 45 45 45 45 45 45 44 43 44 44 42 40 40 39 37 34 31 29 27 25 21 19 20 22 23 23 24 24 24 23 22 21 20 19 19 19 19 18 18 19
24 24 26 29 31 34 36 37 38 39 40 39 39 38 37 37 37 37 37 38 39 40 41 41 42 42 41 41 41 42 42 43 43 44 45 46 46 46 46 47 47 46 46 46 46 46 46 47 47 48 48 46 45 44 44 43 42 41 40 38 35 32 29 28 26 23 20 21 22 23 24 25 24 23 23 23 22 20 20 19 20 21 20 20 19
24 25 27 29 31 34 36 38 39 40 40 39 39 38 37 37 38 38 38 38 39 41 41 42 42 43 42 42 41 41 41 41 42 44 45 45 46 45 45 45 45 45 45 45 45 46 47 48 48 49 50 49 49 48 46 44 43 42 41 40 37 34 31 29 27 24 21 20 21 22 24 26 25 23 22 22 21 20 20 20 22 22 21 20 19
25 26 27 29 32 35 37 38 39 39 39 38 38 38 38 38 38 38 38 39 40 41 41 42 42 43 43 43 43 42 41 41 43 44 44 44 44 44 44 45 45 44 44 45 45 46 47 48 49 50 52 51 49 49 49 48 46 43 42 41 38 35 33 31 28 25 23 21 21 22 23 24 24 23 20 20 21 22 22 23 23 22 20 19 17
24 26 27 30 33 36 36 37 37 37 37 37 38 38 38 38 38 38 39 40 41 41 41 41 41 43 44 43 42 41 41 43 44 45 45 45 44 44 43 44 44 45 45 44 45 46 48 49 50 51 52 51 49 49 49 50 48 46 44 42 39 36 34 32 29 27 24 22 21 22 21 22 23 23 22 22 24 23 21 21 21 21 19 18 18
24 25 28 31 33 35 35 36 36 35 35 37 38 38 38 38 38 39 40 40 40 40 40 40 41 43 43 42 41 41 42 44 45 46 46 46 46 45 44 43 43 43 42 41 42 45 48 50 52 54 53 52 51 50 50 50 50 48 47 45 42 39 37 34 31 28 26 24 24 23 21 22 25 26 26 25 24 23 20 18 18 17 16 17 18
23 25 28 31 32 33 34 35 34 34 35 36 37 37 38 38 38 39 40 40 40 40 39 40 41 42 41 40 40 41 43 45 45 45 46 46 46 46 46 45 44 43 42 42 42 44 47 49 50 52 52 52 50 48 48 49 48 48 48 47 44 40 38 36 33 31 28 27 26 25 25 25 27 27 27 25 24 23 22 20 18 17 16 16 16
22 24 27 29 30 32 33 33 32 33 34 35 36 36 36 37 38 39 40 40 40 38 38 40 41 41 41 40 41 43 44 44 44 44 45 46 46 46 46 45 45 45 44 45 46 46 46 45 44 46 48 50 50 49 48 48 48 48 48 45 40 37 33 29 28 28 29 28 27 27 28 27 26 26 25 24 23 22 22 19 18 17 17 18 18
22 25 27 28 30 31 30 30 31 33 35 35 36 35 35 37 39 40 41 40 39 38 39 41 41 41 41 41 42 43 43 43 43 44 45 46 46 46 45 45 45 46 47 47 47 47 46 45 43 44 46 49 50 49 48 47 46 46 45 41 37 34 28 21 18 19 23 27 28 28 27 26 25 25 23 21 21 20 18 17 16 16 18 21 22
24 27 29 29 29 29 28 29 31 33 34 34 34 34 35 38 40 40 40 38 38 39 40 41 41 41 41 41 41 42 43 43 44 44 45 45 46 46 46 45 45 45 46 47 46 46 46 47 47 47 48 49 50 50 49 47 45 44 43 40 37 34 28 22 19 18 19 22 25 25 24 23 23 22 20 18 17 16 15 14 14 15 17 20 21
25 27 29 29 29 29 28 29 31 32 33 32 32 34 36 38 39 38 38 38 39 40 40 40 41 42 41 41 41 41 43 43 43 44 44 45 45 45 46 45 44 44 44 45 44 43 42 44 46 47 47 48 50 51 49 48 46 44 43 41 38 34 29 24 21 20 20 21 22 23 23 23 22 21 19 17 15 13 13 12 13 15 16 18 19
25 26 28 29 30 29 28 29 30 31 31 31 32 34 36 37 38 37 37 38 38 38 39 40 41 41 41 40 40 42 43 43 43 44 44 44 44 44 45 44 44 43 43 43 43 42 42 43 43 43 43 45 48 50 49 48 46 44 42 41 39 35 30 24 20 18 19 19 20 21 22 22 22 21 20 18 16 14 13 13 15 16 16 17 19
23 25 26 28 29 29 28 28 30 31 31 31 33 35 36 37 37 36 36 37 37 38 39 40 40 40 40 41 42 43 44 43 43 44 44 43 43 44 44 43 43 43 43 42 42 41 41 41 39 36 36 38 42 47 49 49 47 44 41 39 36 33 29 24 20 18 18 18 18 19 21 22 23 23 22 20 18 16 15 16 17 17 17 17 17
23 24 26 28 28 28 28 28 30 31 31 32 35 36 36 37 37 36 37 38 38 39 39 38 39 39 40 42 43 44 44 43 42 43 43 43 43 44 43 41 40 40 39 38 38 37 37 37 37 37 36 35 37 42 47 47 45 43 40 37 34 32 29 26 22 20 20 20 20 20 21 23 24 24 24 23 21 20 19 20 19 18 19 20 18
25 26 28 29 30 29 29 29 30 31 33 35 36 37 36 37 36 36 36 37 37 37 36 36 38 38 39 41 42 43 43 42 41 42 42 42 43 43 41 38 37 36 34 33 33 34 34 35 36 38 37 35 37 43 46 46 44 43 41 37 34 33 30 26 22 21 22 23 23 22 22 23 24 24 24 23 22 22 21 21 19 19 21 22 19
26 28 30 30 31 31 31 31 31 33 34 36 37 36 36 36 35 34 35 35 36 35 35 35 37 37 38 39 40 41 42 41 40 41 41 42 42 42 39 36 34 33 32 31 30 30 31 32 33 35 36 36 41 47 50 49 47 45 42 38 36 34 29 23 19 20 22 24 23 22 21 22 23 24 24 23 22 21 21 20 20 21 22 22 20
28 29 30 31 31 32 32 32 32 33 34 35 36 36 36 34 34 33 34 34 34 34 34 34 35 35 36 36 38 39 40 40 39 39 39 40 40 40 39 37 34 32 30 29 28 28 28 30 32 35 36 38 42 48 52 52 49 46 43 39 36 31 24 19 18 19 21 22 21 20 19 20 21 22 22 22 21 21 22 22 22 23 23 22 20
30 30 31 32 32 32 33 32 32 33 33 33 34 35 35 33 32 32 32 32 32 33 33 33 33 33 33 34 35 36 36 37 38 37 37 37 37 38 39 38 34 31 28 27 28 29 31 33 35 37 38 39 42 47 52 53 50 47 42 37 32 25 20 17 18 19 19 19 19 19 20 20 20 21 21 21 21 21 21 23 24 23 23 23 21
30 31 32 33 33 32 32 31 31 31 32 31 32 34 33 31 30 31 31 30 30 30 31 30 30 30 30 30 32 33 34 35 35 35 35 35 34 36 38 36 34 33 33 32 32 34 35 36 37 38 39 40 42 46 50 51 49 45 39 33 27 22 19 18 19 18 17 18 20 21 21 21 21 22 22 22 21 20 21 22 23 22 22 21 19
31 32 32 32 32 31 30 29 29 29 30 29 30 31 31 29 28 28 29 29 28 27 27 26 26 26 26 26 28 29 30 32 33 34 34 33 33 34 36 37 36 36 36 35 35 35 35 35 36 37 38 38 40 44 47 48 46 41 35 30 25 21 20 21 20 19 19 21 22 23 23 23 23 23 22 20 18 19 19 19 19 18 17 16 15
31 32 33 32 31 30 29 28 28 28 28 27 28 29 29 27 26 27 27 27 26 24 23 23 23 23 23 23 24 24 26 29 31 31 32 31 31 33 36 39 39 37 35 33 32 33 34 35 36 37 37 36 38 41 43 43 42 39 34 28 23 22 23 23 21 21 23 24 25 25 25 24 23 21 18 16 16 17 17 17 16 16 15 14 15
31 32 32 31 30 28 28 29 28 27 26 26 26 28 27 26 26 26 25 25 24 23 22 21 21 21 21 21 21 22 24 26 27 27 27 27 29 31 34 36 37 35 32 30 30 31 32 33 34 34 35 36 36 38 38 37 36 34 31 27 25 25 26 25 24 26 27 27 27 27 26 23 20 17 15 15 17 18 17 17 16 15 14 16 18
31 32 31 30 28 27 26 27 27 26 25 24 24 25 25 25 25 25 24 23 22 22 21 20 19 19 20 21 21 22 23 24 23 23 23 25 27 30 32 33 33 32 30 29 29 30 31 31 32 32 33 33 34 34 33 32 32 31 30 28 28 28 28 27 27 28 29 29 27 26 24 20 16 15 16 18 19 18 17 17 15 14 14 17 20
31 32 32 30 28 27 25 25 25 24 23 23 23 24 24 24 25 26 26 26 25 23 22 22 21 21 21 21 19 18 19 22 24 24 26 28 29 30 31 32 31 31 30 28 27 28 28 27 28 29 31 31 31 30 30 30 31 31 31 30 30 29 27 26 27 29 29 28 25 23 21 18 17 18 19 20 19 18 16 16 16 15 16 18 20
31 32 32 30 28 27 24 23 22 22 22 22 21 22 23 23 25 26 26 26 26 26 24 23 24 24 23 21 20 18 20 23 26 27 28 29 30 31 31 32 32 31 29 27 27 27 27 27 27 28 29 29 28 28 28 29 30 30 30 30 29 28 28 28 29 29 28 26 24 23 21 20 20 20 21 21 20 18 16 16 17 18 19 20 22
30 31 31 29 28 26 24 22 21 20 20 20 20 19 19 19 21 23 23 23 24 25 24 22 22 22 22 23 24 23 23 24 25 25 27 27 29 30 29 30 30 29 27 28 29 28 27 27 27 27 28 27 27 27 28 28 28 28 28 28 28 29 30 30 30 29 27 26 24 23 21 21 22 23 23 22 20 18 17 16 17 19 21 22 22
29 30 28 26 26 24 23 22 21 19 19 19 18 18 16 15 16 19 20 21 21 21 22 21 21 21 21 22 24 24 23 22 21 22 25 26 26 26 25 26 27 27 28 29 29 27 26 25 24 26 27 26 26 27 27 27 28 28 27 27 28 30 31 31 30 28 26 25 24 23 23 24 24 24 22 20 19 18 18 18 18 20 22 23 22
27 29 29 26 25 23 22 21 20 19 18 17 17 17 16 15 13 14 15 17 18 18 19 19 20 20 20 20 21 21 21 20 19 19 22 24 24 24 24 24 25 27 29 30 27 24 24 24 23 24 26 26 26 27 28 28 29 29 28 28 29 30 31 31 29 28 26 25 24 24 24 24 23 21 20 20 20 19 19 20 22 22 23 22 21
27 30 30 28 26 23 21 21 20 20 19 18 18 17 17 15 14 12 11 12 13 15 15 16 17 17 16 17 18 18 19 19 17 16 19 22 23 24 24 25 25 26 29 29 25 22 23 24 23 24 26 26 27 27 28 29 29 29 29 30 29 29 30 29 27 26 25 25 24 24 24 23 21 19 19 19 20 19 19 21 22 22 22 21 21
28 29 30 28 26 24 22 21 21 21 20 19 19 18 18 17 16 13 11 9 9 10 11 11 11 12 12 13 14 15 15 16 15 15 17 21 23 23 23 24 25 26 28 27 24 22 22 22 23 24 26 26 26 27 28 29 29 29 29 29 28 27 27 26 26 25 25 24 24 24 23 21 20 19 19 18 18 18 19 21 22 22 21 20 18
29 30 29 28 27 26 24 22 21 21 20 20 19 19 18 18 17 16 15 13 11 10 9 8 7 8 8 10 11 12 13 13 13 14 18 22 24 24 24 23 24 26 28 27 25 24 24 24 24 25 26 27 27 28 28 29 29 29 29 28 26 25 25 26 26 25 24 24 24 23 22 20 20 21 20 19 19 19 20 20 21 21 19 17 16
28 28 28 27 27 26 25 23 22 22 21 21 21 20 19 18 17 16 15 14 12 10 9 8 7 7 7 8 9 9 10 11 11 14 19 23 25 26 25 24 23 25 26 27 27 26 26 26 26 26 27 27 27 28 28 29 29 30 30 29 28 27 26 27 27 26 24 23 23 22 21 21 22 21 20 19 19 20 20 20 19 18 18 17 16
25 25 25 26 26 26 25 24 23 22 22 20 20 19 18 17 16 15 13 13 12 11 10 10 11 9 8 8 8 8 9 9 10 13 17 20 23 25 25 23 23 23 23 24 26 26 25 25 25 25 26 27 27 27 28 28 28 29 29 28 28 27 27 27 26 24 23 22 22 22 21 21 22 21 20 19 19 19 20 19 18 17 17 16 16
24 23 24 24 24 24 24 24 22 20 19 18 18 17 17 16 15 15 14 14 13 12 12 13 13 13 12 11 10 10 10 11 12 14 16 19 22 24 23 22 22 22 20 21 23 23 23 23 23 24 25 26 26 27 27 27 27 27 27 26 26 25 25 24 23 22 22 22 22 21 21 21 21 21 20 20 21 20 20 19 17 17 17 16 16
22 22 22 23 22 22 23 22 20 18 17 17 16 16 16 16 16 15 15 14 13 13 13 13 12 13 14 14 13 13 14 14 15 16 18 19 20 22 21 20 19 19 18 19 20 21 21 21 22 23 23 24 25 25 25 25 25 25 24 24 24 23 22 21 21 20 21 21 21 21 21 21 21 21 21 21 21 21 19 18 18 18 17 17 17
21 20 20 20 20 21 21 21 19 18 17 17 16 16 16 16 16 15 14 13 13 12 12 12 12 12 14 16 16 17 16 15 14 16 17 17 18 19 19 18 18 17 17 18 19 20 20 20 20 20 21 21 22 22 23 23 23 22 23 23 22 21 19 19 19 20 21 21 21 21 21 21 21 22 22 22 21 20 19 18 18 18 18 18 18
22 19 18 17 17 18 19 20 19 18 17 17 17 16 16 16 15 15 14 13 12 12 11 11 11 12 14 15 15 16 16 15 15 15 16 15 16 17 17 16 16 16 16 16 17 17 17 17 17 18 18 19 19 20 20 20 21 21 21 21 20 19 19 19 19 19 20 21 21 21 21 21 22 23 22 21 19 18 18 18 18 18 18 18 18
23 20 18 16 15 16 17 18 17 16 15 15 15 15 15 15 14 14 13 13 13 12 11 10 10 12 14 13 12 12 13 14 15 15 15 14 15 16 16 15 15 15 14 14 15 16 17 16 16 16 16 17 18 19 19 20 20 20 21 21 21 21 21 21 20 20 20 20 21 21 21 21 22 22 21 20 18 18 18 19 20 19 19 19 18
23 21 18 16 15 16 16 16 15 14 13 13 13 12 12 12 12 12 13 12 13 13 13 12 12 13 14 13 12 12 13 13 14 15 14 14 14 15 15 14 13 13 13 14 14 15 15 15 15 16 16 16 17 18 19 19 20 21 21 21 21 22 22 22 21 20 20 21 22 22 23 23 23 23 21 19 19 20 21 21 21 21 20 19 18
21 19 16 14 14 14 13 13 13 12 11 11 10 9 10 11 11 12 12 12 13 14 14 14 14 15 15 14 12 12 13 13 14 15 14 14 14 14 14 14 13 12 12 13 13 13 13 14 15 16 16 17 18 18 19 20 21 21 21 21 21 21 22 22 22 21 21 22 23 24 24 25 25 24 22 21 21 22 22 22 21 20 19 19 18
17 16 13 11 11 11 11 11 11 10 9 8 8 7 7 9 10 11 12 12 13 14 14 15 15 16 16 14 13 13 13 13 13 14 14 13 13 13 13 13 13 13 13 13 13 13 13 13 15 16 16 17 17 18 18 19 20 20 20 20 20 20 21 21 21 21 21 22 23 23 23 23 24 23 23 22 22 22 22 21 20 19 19 19 19
12 11 10 9 9 9 9 10 11 10 10 10 9 8 8 8 9 10 11 12 12 13 14 14 14 15 15 13 12 12 12 12 12 12 13 12 13 13 12 12 12 12 12 12 12 12 12 13 13 14 14 15 16 16 17 17 17 17 17 17 17 18 18 18 18 18 18 18 19 19 19 20 20 20 21 21 20 20 20 19 19 19 19 19 19
8 6 6 6 7 7 8 9 11 11 11 11 10 9 9 9 9 9 10 11 12 13 14 14 14 14 14 13 12 12 11 11 11 11 11 11 12 11 11 11 11 11 11 11 11 11 12 12 12 12 13 14 14 15 15 16 16 17 17 17 17 18 19 18 18 18 18 18 18 17 17 18 18 19 20 20 19 20 19 19 19 19 19 18 18
3 2 4 5 7 8 8 9 10 11 11 11 11 10 10 9 9 9 10 11 12 13 14 14 14 14 14 13 12 12 12 11 11 11 11 11 10 10 10 10 10 10 10 11 11 11 11 12 12 12 12 13 13 14 14 15 16 16 17 16 16 17 17 18 18 19 19 19 19 19 19 19 19 19 20 19 19 19 19 18 19 19 18 18 17
6 6 6 7 8 9 10 11 12 12 12 13 13 12 12 11 11 11 11 12 13 13 14 14 13 13 13 13 12 11 11 11 10 10 10 10 9 9 9 9 9 9 9 9 9 10 10 10 11 11 12 12 13 13 13 14 14 15 15 15 15 16 16 16 17 17 18 18 18 18 18 18 18 18 18 18 17 18 18 18 18 18 17 17 17
11 12 12 12 11 11 11 12 14 14 13 14 14 14 14 14 13 13 13 13 13 13 13 12 12 11 11 11 10 10 9 9 9 8 8 8 8 8 8 8 8 8 8 8 8 8 8 8 8 9 9 10 11 11 12 12 13 13 14 14 14 14 14 15 15 15 15 15 15 15 16 16 16 16 16 16 16 17 17 17 17 17 17 17 16
15 16 16 16 15 14 14 15 15 15 14 14 15 15 15 15 14 14 13 13 13 13 12 11 11 11 10 9 9 9 8 8 8 7 7 7 7 7 7 7 6 6 6 6 6 6 6 6 7 8 8 9 10 10 11 12 12 12 13 13 13 13 13 13 13 13 13 13 14 14 14 14 14 15 15 16 16 17 18 18 18 17 17 17 16
Wind_Direction
246 247 247 246 246 247 246 246 245 245 245 245 244 244 244 242 242 240 238 236 234 232 236 239 238 235 232 228 226 226 225 223 222 219 216 216 217 217 216 214 214 215 215 214 214 215 216 216 217 218 218 218 216 216 216 217 216 211 207 207 204 203 205 201 189 165 187 203 209 210 207 204 203 205 204 205 210 216 220 223 227 233 238 239 241
252 251 249 247 248 248 248 248 247 246 245 245 244 244 243 243 242 240 238 236 235 235 236 237 239 239 237 233 229 226 226 224 223 221 218 218 218 218 218 216 215 214 214 214 214 214 215 215 216 216 216 217 216 215 214 213 210 207 205 204 203 203 205 202 193 175 180 194 196 198 202 202 203 204 205 209 214 218 222 224 227 234 239 241 244
258 254 250 249 250 249 250 249 247 246 245 245 245 244 243 243 242 241 238 236 237 239 238 237 240 241 239 236 232 229 227 225 223 222 220 219 219 219 219 218 216 214 213 214 214 213 213 213 213 214 213 212 212 211 211 209 207 205 203 202 202 203 203 203 199 188 182 188 192 193 197 202 206 207 209 214 219 222 226 227 230 237 241 243 245
261 256 252 252 251 249 250 249 246 245 245 245 245 244 244 243 243 241 239 237 238 239 239 241 244 242 238 235 233 230 228 226 224 224 222 222 221 221 220 219 217 215 214 214 213 212 212 211 211 211 209 207 207 206 206 205 204 202 200 199 201 201 200 201 204 200 190 186 191 196 199 204 209 210 211 215 220 225 230 233 236 241 245 247 248
263 259 255 253 252 250 250 249 247 245 245 245 245 244 244 243 243 242 239 237 237 237 237 240 243 240 236 235 233 230 229 228 226 225 225 224 223 222 221 220 219 217 216 215 214 213 212 211 210 208 206 203 202 200 200 201 201 200 198 197 198 197 196 198 203 206 202 194 194 198 202 208 212 214 214 217 221 226 232 237 242 246 249 250 250
265 262 258 254 253 253 252 250 249 248 247 246 245 244 243 243 242 241 240 238 237 237 236 237 239 240 238 237 236 234 233 230 227 227 227 225 223 222 221 221 219 218 217 216 215 214 213 212 210 208 205 203 201 198 197 198 198 197 197 196 195 193 192 195 200 203 205 202 197 198 204 210 214 215 217 220 224 229 234 241 247 250 252 253 254
267 264 259 256 255 256 256 254 253 252 249 247 246 245 244 243 242 241 240 239 237 237 236 236 236 237 240 241 241 239 236 232 229 228 227 225 223 221 220 220 219 218 218 217 216 215 214 212 210 208 206 205 203 200 196 196 197 197 197 195 192 190 190 193 196 198 198 197 197 200 207 212 216 218 220 222 227 234 238 243 249 252 255 258 261
268 266 260 256 257 260 261 259 257 255 252 250 248 246 244 243 242 241 240 239 238 237 236 236 235 236 239 241 242 241 237 233 230 227 226 224 222 220 220 220 219 218 218 218 216 215 213 211 210 210 208 206 205 202 198 196 195 194 194 194 189 186 188 190 191 192 192 192 196 201 207 213 216 219 220 219 223 232 237 240 248 257 262 264 268
270 267 260 257 261 264 264 261 259 256 253 251 248 247 245 243 242 241 240 239 238 238 237 237 236 236 237 238 239 239 235 232 230 227 225 222 220 220 220 220 220 219 218 217 215 213 212 210 211 212 211 210 210 208 204 202 199 194 191 191 187 184 186 187 187 188 189 191 196 200 205 211 214 214 215 218 223 233 239 239 246 257 264 267 272
273 266 261 263 267 267 264 262 259 256 254 252 249 247 245 243 242 241 241 240 239 238 237 236 236 236 236 235 236 235 233 232 232 229 227 224 221 220 220 220 220 219 217 215 213 213 212 212 212 213 213 212 212 211 208 206 203 199 194 190 187 185 184 184 186 188 189 192 197 199 201 211 216 216 219 227 232 236 239 239 244 254 261 267 274
274 267 266 269 270 268 265 262 259 257 255 253 250 248 246 243 242 241 241 240 238 237 235 235 236 236 236 235 235 234 234 233 232 231 229 226 223 221 220 220 220 220 218 216 214 214 214 214 213 212 212 211 210 210 208 205 203 200 196 192 188 184 181 181 185 189 192 196 200 202 205 214 222 223 225 232 235 236 238 240 244 251 256 260 267
279 273 274 274 272 269 266 262 259 257 256 254 251 249 246 243 242 241 240 239 238 236 234 235 237 237 237 237 235 235 235 234 233 232 231 228 226 224 222 221 220 220 219 217 216 215 214 214 213 212 210 209 208 207 206 204 202 200 196 191 187 183 180 179 184 191 197 199 200 206 212 220 227 229 230 233 235 236 237 238 242 249 252 252 254
287 283 283 280 277 274 269 264 261 259 258 256 253 249 245 243 242 241 240 239 237 235 234 235 236 236 237 237 236 236 235 235 234 233 232 230 227 225 224 222 221 220 219 219 218 216 213 211 211 211 210 208 206 204 203 202 201 199 195 189 185 183 180 180 188 198 204 204 204 210 217 222 229 234 236 236 234 231 230 233 243 249 251 253 256
293 289 287 285 282 279 274 267 264 263 261 258 253 248 245 244 244 242 241 239 236 234 235 235 235 236 236 236 237 237 236 235 235 234 233 231 228 226 225 225 224 223 221 220 219 218 214 210 209 209 208 207 204 202 200 199 197 195 192 187 184 182 180 181 189 199 205 207 210 216 221 227 233 238 241 238 233 232 234 240 249 254 256 260 265
295 292 290 289 287 283 278 272 269 267 263 258 254 250 247 246 244 243 241 238 237 236 236 235 235 235 235 235 236 237 237 236 235 234 233 232 229 227 227 226 225 225 224 222 221 219 217 213 211 209 207 205 203 200 197 194 192 191 190 187 184 182 181 184 192 201 208 213 217 222 228 236 240 241 244 244 241 243 249 253 256 258 261 263 264
297 296 294 293 292 287 282 276 272 270 265 259 254 251 249 247 245 243 241 240 239 237 236 236 236 235 235 234 235 237 238 236 235 235 234 233 231 228 227 227 226 226 225 224 223 221 218 216 214 211 208 206 203 199 194 190 188 188 188 188 186 184 183 186 196 208 216 222 226 231 236 243 246 244 245 247 247 249 254 255 255 254 254 255 257
300 300 298 297 296 292 287 281 276 272 266 259 255 254 251 249 247 244 241 240 238 237 237 236 236 235 235 234 234 237 238 237 235 235 234 232 230 227 226 226 226 226 226 225 223 221 218 215 212 209 208 207 204 198 193 189 186 185 186 187 187 185 183 186 196 209 218 225 231 237 242 245 246 246 246 247 248 249 247 246 248 247 242 244 250
307 307 304 303 301 297 291 284 278 274 267 262 259 257 254 251 249 245 241 240 239 238 238 237 237 236 235 235 235 237 239 238 236 235 234 232 229 226 225 224 225 226 225 224 223 220 217 215 211 208 206 205 203 198 194 190 185 183 185 186 185 186 187 189 197 208 216 222 228 234 241 244 244 245 246 246 248 249 245 245 248 243 236 237 243
314 313 310 308 305 300 293 286 280 274 269 266 263 260 257 255 252 247 243 241 241 240 239 238 238 237 236 237 237 238 240 240 238 236 236 233 229 226 224 223 224 224 223 221 220 217 215 213 210 206 203 200 198 197 195 191 186 186 188 186 186 190 192 194 201 211 218 223 226 230 238 243 244 245 245 245 247 249 249 249 248 240 236 239 243
316 312 309 308 305 301 296 289 282 276 272 270 267 263 260 257 252 248 244 242 241 241 239 238 238 238 238 238 238 239 240 241 240 238 237 234 230 226 223 223 223 221 218 215 211 208 207 207 205 203 201 198 198 197 195 193 191 191 192 191 193 195 196 200 211 222 227 229 229 232 238 243 243 243 243 241 241 242 245 245 243 240 240 243 245
314 310 309 307 303 300 297 291 285 281 276 273 270 266 262 257 252 248 245 242 240 239 238 237 238 239 239 238 239 239 240 240 241 239 238 236 231 225 222 222 222 218 213 208 202 198 198 199 199 200 200 200 200 199 196 194 194 196 196 197 200 200 201 211 227 233 234 232 230 232 234 235 234 234 235 235 233 234 238 241 242 241 242 244 245
312 310 308 305 303 300 298 293 289 284 280 275 270 266 263 258 253 249 245 242 239 238 237 236 236 239 240 239 239 240 240 240 241 240 238 236 231 225 222 222 221 215 205 198 196 197 198 198 197 197 199 201 202 201 196 194 196 199 198 197 200 203 211 227 238 238 234 229 226 227 227 225 226 227 228 230 230 232 235 238 239 241 244 248 249
311 308 305 304 303 301 299 295 291 286 282 276 270 266 263 258 253 248 243 239 238 238 238 237 236 238 239 239 239 240 240 240 240 239 238 235 230 226 223 221 218 211 203 198 198 199 199 199 198 198 199 201 204 203 199 195 196 198 196 195 199 209 222 235 239 237 230 225 223 224 224 223 224 225 228 230 232 233 234 235 238 242 245 249 253
308 305 303 302 301 301 299 296 291 287 283 277 270 265 262 257 252 246 240 236 235 237 238 237 237 239 241 241 240 239 239 239 239 239 238 234 230 226 221 219 216 212 207 204 202 200 198 198 198 199 200 201 204 205 202 198 197 196 195 197 203 214 228 236 236 230 223 220 220 222 224 225 225 227 231 234 234 233 230 229 232 235 238 243 248
306 303 302 301 300 300 298 293 289 285 281 275 267 263 259 253 248 243 238 233 232 235 237 236 236 240 243 244 244 242 240 240 239 238 235 232 230 226 220 216 216 213 208 204 202 200 198 198 199 198 197 199 202 204 202 200 198 197 198 201 208 220 231 235 230 222 218 219 221 224 226 228 229 231 234 232 225 221 219 218 219 222 226 233 239
301 299 298 298 299 298 295 291 288 284 279 272 265 261 256 250 245 241 235 231 231 233 235 234 235 238 242 245 245 243 241 238 236 234 230 227 226 222 216 214 213 211 207 204 201 199 199 200 201 198 195 196 198 198 197 198 199 201 203 207 216 225 230 228 221 217 219 222 224 227 229 231 231 230 226 220 214 212 212 214 218 222 226 232 238
297 295 295 296 296 294 289 287 286 283 277 271 264 258 253 247 243 238 232 228 228 230 232 232 232 234 238 241 241 240 238 235 231 226 222 219 216 213 210 208 206 204 201 199 197 197 198 201 200 195 191 191 192 192 192 194 198 203 207 213 221 227 228 226 222 222 225 227 228 230 232 231 226 220 217 216 215 214 215 220 224 227 233 239 243
295 293 294 294 292 289 285 282 281 280 275 270 263 256 251 244 240 236 233 229 227 227 229 230 229 231 234 236 234 232 231 230 227 222 217 212 207 204 203 201 198 196 194 192 189 189 190 190 189 186 184 185 187 189 191 196 201 206 211 216 222 225 225 225 225 226 228 229 229 230 227 221 216 216 216 216 217 218 220 226 230 233 235 237 238
294 291 291 289 286 284 282 279 277 275 272 269 262 256 252 247 243 241 239 237 234 232 232 233 233 234 235 233 228 224 227 231 230 225 219 212 205 201 198 196 193 191 190 186 179 177 177 178 179 180 182 184 188 191 195 200 204 209 214 218 220 219 219 220 220 222 224 225 224 223 218 214 215 217 216 217 220 223 224 228 230 231 231 230 231
289 286 284 283 282 282 280 277 273 269 265 263 258 253 250 248 246 245 243 242 240 238 239 241 241 240 238 236 234 233 236 240 238 229 219 212 206 201 197 194 191 188 185 181 176 173 174 176 178 181 184 187 190 194 197 200 204 208 213 215 215 215 216 217 219 220 221 220 220 218 215 213 214 214 214 217 222 223 224 227 229 229 227 226 228
282 280 280 280 280 279 277 273 269 262 257 254 249 243 239 240 243 244 242 243 243 242 242 244 246 246 244 243 243 241 240 245 246 234 220 211 205 201 197 192 190 187 182 178 176 176 177 179 181 184 187 190 194 196 198 200 203 206 208 209 211 212 213 215 217 217 218 218 217 217 216 215 214 213 215 219 222 223 224 225 224 225 226 226 228
276 277 279 279 279 277 272 267 263 255 248 244 238 233 229 230 236 241 242 242 243 242 243 244 246 250 250 247 245 243 240 243 245 236 220 208 202 201 198 191 188 188 184 180 180 181 183 184 185 187 190 194 198 199 200 202 204 205 204 203 206 209 211 214 216 216 217 217 216 215 216 215 215 218 221 222 221 219 220 220 220 221 224 228 232
277 276 277 277 275 270 263 257 252 247 241 235 229 224 221 222 225 231 236 239 241 241 242 244 246 250 251 248 245 244 243 241 240 231 217 205 197 196 196 191 188 187 185 183 184 188 188 189 191 192 194 198 200 200 201 203 203 203 202 202 205 208 211 214 216 216 217 217 216 215 216 216 218 220 222 220 219 218 218 219 221 222 224 229 233
281 278 277 275 271 264 255 249 244 241 238 233 228 222 221 222 222 220 216 218 222 225 229 234 239 242 243 239 238 240 240 237 233 223 208 197 191 189 188 187 188 189 189 189 191 194 194 195 196 197 198 200 200 200 200 201 201 201 202 204 207 209 211 212 214 215 216 216 217 217 217 218 220 221 219 218 217 219 221 222 222 223 225 228 232
284 281 279 276 269 262 255 248 241 237 233 230 227 224 222 221 220 216 214 211 207 203 202 205 214 221 221 220 225 231 231 227 221 210 197 190 187 185 181 181 186 191 194 196 198 199 200 200 200 200 200 200 200 200 200 201 201 202 204 205 207 208 209 210 212 213 214 215 217 218 218 220 224 225 224 222 218 218 220 222 223 225 228 231 237
284 281 279 274 268 262 257 250 242 234 230 227 226 224 221 218 215 213 214 211 203 192 183 180 183 191 203 209 211 214 215 212 205 198 193 189 186 184 183 185 189 193 196 198 199 200 202 203 203 202 202 201 202 203 203 204 205 207 208 209 208 208 209 210 210 211 213 215 217 219 220 222 225 226 225 224 222 222 224 226 226 229 234 238 242
280 278 276 272 266 261 257 251 243 235 230 225 223 220 217 214 211 208 206 203 196 184 173 170 170 171 180 191 190 186 191 193 187 184 186 188 188 189 191 192 193 195 196 196 196 198 201 203 203 204 204 204 205 206 207 208 210 210 211 211 212 212 211 210 209 211 215 217 218 221 223 224 226 226 225 225 225 226 228 230 231 234 239 241 242
277 274 273 270 265 260 254 249 243 235 228 222 218 214 211 209 206 205 204 201 194 185 176 173 172 170 169 174 178 176 172 170 169 171 176 182 186 191 194 195 195 196 197 196 196 198 201 203 206 207 208 209 210 210 210 210 210 210 210 210 211 210 208 207 209 213 217 218 218 220 223 224 226 228 230 231 230 229 230 233 234 236 237 236 235
277 274 271 267 263 258 252 247 240 232 223 218 214 211 209 206 204 204 204 201 196 191 183 178 176 174 169 169 172 170 163 161 165 170 174 179 186 191 194 195 196 198 200 199 200 203 205 206 209 211 212 213 213 211 210 209 207 207 206 203 200 200 202 206 211 215 216 217 218 220 222 224 227 229 231 232 233 233 233 236 237 236 235 234 235
279 276 273 266 260 256 251 244 236 227 219 215 212 209 209 208 205 204 203 201 198 195 189 184 181 178 175 172 171 169 164 164 168 171 173 179 186 190 193 195 195 196 199 201 202 204 206 207 209 209 210 210 209 207 206 205 201 199 197 195 195 199 206 212 215 216 217 219 221 222 224 226 228 228 229 230 233 235 236 238 239 240 239 240 241
281 276 273 268 259 251 245 241 235 227 219 216 213 210 210 209 207 204 202 200 198 195 191 189 187 183 179 176 174 172 170 168 169 172 175 179 184 188 191 195 195 194 196 197 198 200 201 202 203 203 201 202 201 199 198 197 195 194 195 198 202 206 210 214 217 218 220 221 222 224 226 228 229 229 230 231 233 235 237 239 242 244 244 244 245
282 274 271 268 258 245 239 238 236 229 222 217 214 212 212 210 207 204 202 199 197 193 187 186 187 183 179 175 174 177 178 174 172 174 176 179 184 187 191 195 196 196 196 197 196 196 195 193 193 195 195 194 195 195 195 196 197 199 202 207 210 211 213 216 219 221 223 226 227 227 229 230 231 233 233 234 234 235 238 240 241 242 243 243 244
283 273 266 260 250 238 234 235 232 225 221 217 214 213 214 211 207 205 202 197 195 192 186 183 183 180 177 176 178 182 182 179 177 178 178 178 182 186 189 193 195 196 197 198 197 196 195 193 193 195 197 197 198 200 202 204 206 206 207 211 214 216 217 219 221 223 226 230 231 232 232 232 232 231 232 235 238 239 239 239 239 239 241 243 245
284 274 263 253 242 231 225 223 221 215 212 210 207 206 209 208 205 203 199 193 191 191 189 187 186 182 179 181 184 184 180 178 180 183 183 183 183 183 184 188 191 191 192 193 193 195 198 199 198 198 199 201 203 205 208 211 212 213 214 217 220 222 223 224 225 228 231 233 233 233 234 233 232 231 232 235 238 238 236 235 235 237 239 241 242
281 268 252 236 226 218 210 204 201 196 191 188 185 184 188 192 193 194 191 187 186 187 188 189 188 185 183 184 184 182 179 177 178 181 184 184 184 182 181 183 185 188 188 189 191 195 200 202 202 201 201 203 205 207 209 211 213 214 216 219 223 226 227 227 229 232 233 234 234 233 233 232 232 233 234 235 236 235 234 235 235 236 237 239 240
279 261 240 219 207 200 191 182 178 173 169 168 167 165 167 173 177 180 181 180 178 177 177 178 179 181 183 182 179 177 176 176 177 180 182 183 182 180 179 180 181 184 185 186 188 191 194 197 199 200 200 201 201 202 205 208 210 212 216 219 223 226 228 228 229 229 229 230 231 231 232 232 233 234 235 236 236 236 236 237 237 238 239 241 241
276 254 225 198 181 172 165 159 156 154 151 151 153 154 156 161 166 169 171 172 169 166 164 164 167 171 174 173 173 174 174 176 178 179 180 181 180 180 182 185 187 190 193 194 195 197 200 202 206 208 210 212 214 215 218 220 223 226 230 232 233 234 235 235 235 234 234 235 236 236 237 237 236 236 236 236 235 236 236 235 236 239 240 240 240
298 232 181 159 148 144 141 138 137 137 135 134 136 137 139 144 150 154 156 156 155 153 153 154 157 160 160 159 160 161 160 160 162 163 165 169 172 176 181 187 190 194 198 200 201 203 205 208 211 214 217 221 225 227 230 231 232 236 239 239 239 239 239 239 240 239 239 240 241 241 241 241 239 237 236 234 233 233 234 233 235 237 237 237 237
52 64 87 104 113 120 124 123 123 123 125 127 127 126 127 130 133 135 139 141 141 140 142 145 148 150 150 148 147 148 147 147 149 152 156 162 168 174 180 185 189 193 196 199 202 204 206 208 211 215 218 222 226 230 233 235 237 239 241 241 240 240 239 239 239 238 238 239 239 238 238 237 235 234 233 233 233 233 233 233 235 236 234 233 232
61 63 64 67 75 89 101 108 110 111 115 120 121 119 119 121 121 122 125 127 126 127 130 132 133 135 137 138 140 142 142 142 143 147 151 156 162 169 175 180 184 188 192 195 199 204 207 211 216 220 223 228 231 233 235 238 239 239 240 240 239 238 237 237 237 237 237 237 236 235 234 233 232 231 231 230 230 230 231 231 231 232 231 230 230
69 71 68 66 68 73 79 84 89 93 98 105 108 109 110 111 111 112 113 113 112 113 117 119 122 125 128 131 134 137 138 139 141 144 146 150 156 162 168 174 179 184 190 196 202 207 212 216 220 223 224 227 230 231 233 235 236 236 238 239 239 239 239 239 239 240 239 237 236 235 234 233 233 232 231 230 229 229 230 230 230 230 231 232 233